FW7515 Weather Reports


Display with metric or nautical units.
time (UTC)temp
F
wind
direction
speed
MPH
gust
MPH
rain 1hr
in
rain 24hr
in
rain mn
in
humidity
%
barometer
mb
20260507060518 56 60 4.0 6.0 0.00 0.05 0.05 79 1017.3
20260507060035 56 49 4.0 6.0 0.00 0.05 0.05 79 1017.2
20260507055532 56 70 4.0 6.0 0.00 0.05 0.05 79 1017.3
20260507055029 56 55 3.0 4.0 0.00 0.05 0.05 78 1017.2
20260507054607 56 61 4.0 5.0 0.00 0.05 0.05 78 1017.2
20260507054022 57 64 4.0 7.0 0.00 0.05 0.05 78 1017.2
20260507053518 57 61 4.0 5.0 0.00 0.05 0.05 77 1017.2
20260507053036 57 67 3.0 5.0 0.00 0.05 0.05 77 1017.1
20260507052533 57 68 4.0 6.0 0.00 0.05 0.05 77 1017.1
20260507052030 57 58 4.0 6.0 0.00 0.05 0.05 76 1017.0
20260507051547 57 74 4.0 7.0 0.00 0.05 0.05 76 1017.1
20260507051023 57 69 6.0 9.0 0.00 0.05 0.05 75 1017.2
20260507050520 58 71 5.0 9.0 0.00 0.05 0.05 75 1017.0
20260507050017 58 67 6.0 11.0 0.00 0.05 0.05 74 1017.1
20260507045534 58 67 6.0 12.0 0.00 0.05 0.05 74 1017.2
20260507045031 58 65 5.0 11.0 0.00 0.05 0.05 74 1017.2
20260507044709 58 63 6.0 12.0 0.00 0.05 0.05 74 1017.2
20260507044025 58 63 5.0 9.0 0.00 0.05 0.05 74 1017.3
20260507043521 58 64 5.0 8.0 0.00 0.05 0.05 74 1017.2
20260507043018 59 74 4.0 6.0 0.00 0.05 0.05 73 1017.3
20260507042534 59 71 5.0 8.0 0.00 0.05 0.05 73 1017.4
20260507042032 59 65 6.0 12.0 0.00 0.05 0.05 72 1017.4
20260507041548 59 66 7.0 13.0 0.00 0.05 0.05 71 1017.4
20260507041025 59 62 7.0 13.0 0.00 0.05 0.05 71 1017.5
20260507040522 59 63 7.0 12.0 0.00 0.05 0.05 71 1017.5
20260507040019 59 61 8.0 15.0 0.00 0.05 0.05 71 1017.5
20260507035516 60 67 7.0 13.0 0.00 0.05 0.05 71 1017.4
20260507035033 60 64 6.0 14.0 0.00 0.05 0.05 72 1017.5
20260507034529 60 65 7.0 12.0 0.00 0.05 0.05 71 1017.5
20260507034026 60 68 7.0 16.0 0.00 0.05 0.05 72 1017.5
20260507033523 60 60 6.0 11.0 0.00 0.05 0.05 72 1017.4
20260507033020 60 62 6.0 11.0 0.00 0.05 0.05 71 1017.5
20260507032557 60 54 7.0 12.0 0.00 0.05 0.05 71 1017.3
20260507032034 60 44 10.0 14.0 0.00 0.05 0.05 70 1017.5
20260507031531 60 46 8.0 17.0 0.00 0.05 0.05 71 1017.4
20260507031027 60 50 8.0 13.0 0.00 0.05 0.05 70 1017.5
20260507030524 60 49 8.0 13.0 0.00 0.05 0.05 70 1017.4
20260507030021 60 50 9.0 15.0 0.00 0.05 0.05 70 1017.4
20260507025518 61 49 10.0 18.0 0.00 0.05 0.05 70 1017.2
20260507025055 61 42 8.0 14.0 0.00 0.05 0.05 71 1017.1
20260507024532 61 41 9.0 14.0 0.00 0.05 0.05 71 1017.0
20260507024109 61 44 9.0 14.0 0.00 0.05 0.05 70 1016.8
20260507023526 62 49 8.0 15.0 0.00 0.05 0.05 70 1016.8
20260507023022 62 52 7.0 13.0 0.00 0.05 0.05 71 1016.6
20260507022518 62 55 8.0 15.0 0.00 0.05 0.05 71 1016.4
20260507022016 62 52 7.0 13.0 0.00 0.05 0.05 72 1016.4
20260507021533 62 53 8.0 14.0 0.00 0.05 0.05 72 1016.4
20260507021030 62 52 7.0 14.0 0.00 0.05 0.05 72 1016.4
20260507020526 62 54 7.0 14.0 0.00 0.05 0.05 72 1016.2
20260507020023 62 55 7.0 12.0 0.00 0.05 0.05 72 1016.2
20260507015520 62 56 7.0 12.0 0.00 0.05 0.05 71 1016.0
20260507015017 62 65 8.0 13.0 0.00 0.05 0.05 71 1016.0
20260507014555 62 53 6.0 11.0 0.00 0.05 0.05 71 1015.8
20260507014031 62 67 6.0 10.0 0.00 0.05 0.05 71 1015.6
20260507013528 62 50 6.0 11.0 0.00 0.05 0.05 71 1015.5
20260507013025 62 61 7.0 12.0 0.00 0.05 0.05 71 1015.4
20260507012522 62 63 7.0 13.0 0.00 0.05 0.05 71 1015.3
20260507012019 62 58 7.0 12.0 0.00 0.05 0.05 71 1015.1
20260507011536 63 50 6.0 10.0 0.00 0.05 0.05 71 1015.1
20260507011033 63 61 5.0 9.0 0.00 0.05 0.05 71 1015.2
20260507010529 63 64 7.0 14.0 0.00 0.05 0.05 71 1014.9
20260507010026 63 60 6.0 11.0 0.00 0.05 0.05 71 1014.8
20260507005523 63 57 5.0 9.0 0.00 0.05 0.05 71 1014.8
20260507005040 63 63 6.0 11.0 0.00 0.05 0.05 71 1014.8
20260507004536 63 57 6.0 11.0 0.00 0.05 0.05 71 1014.7
20260507004033 63 56 7.0 15.0 0.00 0.05 0.05 70 1014.7
20260507003531 63 57 7.0 12.0 0.00 0.05 0.05 70 1014.7
20260507003047 64 64 7.0 13.0 0.00 0.05 0.05 69 1014.6
20260507002524 64 60 6.0 12.0 0.00 0.05 0.05 69 1014.6
20260507002021 64 57 7.0 13.0 0.00 0.05 0.05 69 1014.5
20260507001538 64 70 7.0 12.0 0.00 0.05 0.05 68 1014.6
20260507001035 65 65 6.0 13.0 0.00 0.05 0.05 68 1014.5
20260507000532 65 56 6.0 10.0 0.00 0.05 0.05 68 1014.4
20260507000048 65 62 8.0 12.0 0.00 0.05 0.05 68 1014.2
20260506235525 65 69 6.0 11.0 0.00 0.05 0.05 68 1014.2
20260506235023 65 59 7.0 15.0 0.00 0.05 0.05 68 1014.1
20260506234521 65 64 7.0 15.0 0.00 0.05 0.05 67 1014.0
20260506234017 66 45 6.0 11.0 0.00 0.05 0.05 66 1014.1
20260506233535 66 45 7.0 12.0 0.00 0.05 0.05 66 1013.9
20260506233032 66 57 7.0 15.0 0.00 0.05 0.05 65 1014.0
20260506232549 66 52 7.0 13.0 0.00 0.05 0.05 65 1013.7
20260506232046 66 52 7.0 11.0 0.00 0.05 0.05 65 1013.8
20260506231523 67 60 5.0 11.0 0.00 0.05 0.05 65 1013.7
20260506231040 66 47 7.0 14.0 0.00 0.05 0.05 64 1013.7
20260506230516 67 67 7.0 12.0 0.00 0.05 0.05 63 1013.6
20260506230033 68 59 5.0 11.0 0.00 0.05 0.05 63 1013.6
20260506225610 67 49 7.0 13.0 0.00 0.05 0.05 63 1013.9
20260506225027 67 59 6.0 12.0 0.00 0.05 0.05 63 1013.7
20260506224524 67 67 7.0 13.0 0.00 0.05 0.05 63 1013.6
20260506224021 68 57 6.0 11.0 0.00 0.05 0.05 63 1013.5
20260506223517 67 57 7.0 14.0 0.00 0.05 0.05 63 1013.5
20260506223034 67 43 6.0 11.0 0.00 0.05 0.05 64 1013.5
20260506222531 67 41 7.0 13.0 0.00 0.05 0.05 64 1013.5
20260506222028 67 33 6.0 13.0 0.00 0.05 0.05 64 1013.4
20260506221525 67 58 7.0 13.0 0.00 0.05 0.05 64 1013.4
20260506221021 66 48 7.0 12.0 0.00 0.05 0.05 65 1013.4
20260506220539 66 46 5.0 12.0 0.00 0.05 0.05 65 1013.5
20260506220015 66 49 6.0 9.0 0.00 0.05 0.05 65 1013.6
20260506215533 66 57 5.0 12.0 0.00 0.05 0.05 64 1013.8
20260506215029 66 65 5.0 11.0 0.00 0.05 0.05 65 1013.6
20260506214526 65 68 6.0 11.0 0.00 0.05 0.05 66 1013.6
20260506214023 65 64 5.0 11.0 0.00 0.05 0.05 66 1013.5
20260506213519 64 52 4.0 8.0 0.00 0.05 0.05 66 1013.7
20260506213037 64 65 6.0 12.0 0.00 0.05 0.05 67 1013.6
20260506212533 64 46 6.0 9.0 0.00 0.05 0.05 67 1013.8
20260506212030 63 45 6.0 12.0 0.00 0.05 0.05 68 1013.8
20260506211527 63 46 5.0 9.0 0.00 0.05 0.05 68 1013.8
20260506211024 63 51 5.0 8.0 0.00 0.05 0.05 69 1014.0
20260506210521 63 47 5.0 9.0 0.00 0.05 0.05 68 1014.2
20260506210058 63 53 4.0 8.0 0.00 0.05 0.05 67 1014.0
20260506205535 63 71 5.0 9.0 0.00 0.05 0.05 68 1014.0
20260506205032 63 65 6.0 13.0 0.00 0.05 0.05 67 1013.8
20260506204549 63 69 6.0 10.0 0.00 0.05 0.05 67 1013.7
20260506204026 63 41 6.0 11.0 0.00 0.05 0.05 67 1014.0
20260506203522 63 42 5.0 9.0 0.00 0.05 0.05 68 1013.9
20260506203019 63 60 7.0 11.0 0.00 0.05 0.05 67 1014.0
20260506202516 63 44 5.0 9.0 0.00 0.05 0.05 67 1014.1
20260506202034 63 53 6.0 11.0 0.00 0.05 0.05 67 1014.2
20260506201530 63 52 7.0 13.0 0.00 0.05 0.05 66 1014.3
20260506201027 63 68 5.0 10.0 0.00 0.05 0.05 67 1014.5
20260506200524 63 55 5.0 11.0 0.00 0.05 0.05 67 1014.5
20260506200021 62 50 5.0 9.0 0.00 0.05 0.05 67 1014.5
20260506195539 62 70 6.0 10.0 0.00 0.05 0.05 67 1014.5
20260506195034 62 38 4.0 9.0 0.00 0.05 0.05 67 1014.7
20260506194552 62 47 6.0 13.0 0.00 0.05 0.05 67 1014.8
20260506194029 61 76 6.0 12.0 0.00 0.05 0.05 68 1014.8
20260506193526 61 62 6.0 12.0 0.00 0.05 0.05 68 1015.0
20260506193044 61 61 6.0 12.0 0.00 0.05 0.05 68 1014.9
20260506192520 61 74 6.0 12.0 0.00 0.05 0.05 69 1015.0
20260506192037 61 44 4.0 10.0 0.00 0.05 0.05 70 1015.0
20260506191534 61 54 6.0 9.0 0.00 0.05 0.05 69 1014.9
20260506191031 60 49 4.0 6.0 0.00 0.05 0.05 70 1015.1
20260506190528 60 43 5.0 9.0 0.00 0.05 0.05 70 1015.3
20260506190024 60 47 6.0 13.0 0.00 0.05 0.05 70 1015.1
20260506185521 60 43 3.0 7.0 0.00 0.05 0.05 70 1015.0
20260506185057 60 42 6.0 11.0 0.00 0.05 0.05 69 1014.9
20260506184555 60 52 6.0 10.0 0.00 0.05 0.05 69 1014.9
20260506184032 60 46 7.0 15.0 0.00 0.05 0.05 70 1014.4
20260506183529 59 38 7.0 14.0 0.00 0.05 0.05 71 1014.0
20260506183025 59 49 9.0 18.0 0.00 0.05 0.05 72 1014.0
20260506182522 59 38 8.0 17.0 0.00 0.05 0.05 72 1014.2
20260506182019 59 38 8.0 16.0 0.00 0.05 0.05 72 1014.1
20260506181516 59 35 8.0 16.0 0.00 0.05 0.05 72 1014.1
20260506181053 58 44 7.0 17.0 0.00 0.05 0.05 73 1014.2
20260506180529 58 50 9.0 14.0 0.00 0.05 0.05 74 1014.2
20260506180027 57 54 9.0 15.0 0.00 0.05 0.05 75 1014.5
20260506175523 57 43 9.0 13.0 0.00 0.05 0.05 75 1014.6
20260506175019 57 57 9.0 15.0 0.00 0.05 0.05 75 1014.6
20260506174517 57 43 9.0 17.0 0.00 0.05 0.05 76 1014.6
20260506174033 57 50 8.0 16.0 0.00 0.05 0.05 77 1014.4
20260506173530 56 51 7.0 12.0 0.00 0.05 0.05 79 1014.4
20260506173047 55 50 8.0 15.0 0.00 0.05 0.05 80 1014.6
20260506172544 55 52 8.0 12.0 0.00 0.05 0.05 81 1014.6
20260506172021 55 44 8.0 14.0 0.00 0.05 0.05 82 1014.7
20260506171518 55 55 7.0 12.0 0.00 0.05 0.05 83 1014.3
20260506171035 54 46 9.0 15.0 0.00 0.05 0.05 82 1014.4
20260506170531 54 50 9.0 14.0 0.00 0.05 0.05 82 1014.7
20260506170028 54 61 8.0 16.0 0.00 0.05 0.05 82 1014.8
20260506165525 54 59 7.0 13.0 0.00 0.05 0.05 82 1014.9
20260506165022 54 51 9.0 15.0 0.00 0.05 0.05 83 1014.9
20260506164519 54 47 7.0 11.0 0.00 0.05 0.05 83 1015.0
20260506164016 54 42 9.0 13.0 0.00 0.05 0.05 83 1015.2
20260506163533 54 53 8.0 13.0 0.00 0.05 0.05 83 1015.3
20260506163029 54 41 8.0 13.0 0.00 0.05 0.05 83 1015.2
20260506162546 54 55 7.0 14.0 0.00 0.05 0.05 84 1014.9
20260506162023 54 39 8.0 14.0 0.00 0.05 0.05 84 1014.9
20260506161539 53 46 9.0 15.0 0.02 0.05 0.05 84 1014.5
20260506161017 53 39 7.0 16.0 0.03 0.05 0.05 85 1014.1
20260506160534 53 44 9.0 18.0 0.04 0.05 0.05 86 1013.9
20260506160030 53 39 9.0 20.0 0.04 0.05 0.05 87 1014.1
20260506155527 53 34 7.0 14.0 0.04 0.05 0.05 88 1014.2
20260506155024 53 34 8.0 13.0 0.04 0.05 0.05 89 1014.5
20260506154521 53 31 5.0 10.0 0.04 0.05 0.05 89 1015.0
20260506154018 53 38 5.0 11.0 0.04 0.05 0.05 89 1015.0
20260506153535 52 62 5.0 11.0 0.04 0.05 0.05 89 1014.9
20260506153031 52 48 7.0 11.0 0.05 0.05 0.05 89 1014.8
20260506152528 52 50 6.0 15.0 0.05 0.05 0.05 89 1014.9
20260506152025 52 28 8.0 13.0 0.04 0.04 0.04 89 1014.5
20260506151522 52 48 10.0 15.0 0.03 0.03 0.03 88 1015.0
20260506151018 53 46 5.0 12.0 0.02 0.02 0.02 87 1016.7
20260506150515 53 23 2.0 4.0 0.01 0.01 0.01 86 1016.8
20260506150052 53 34 5.0 11.0 0.01 0.01 0.01 85 1016.5
20260506145528 53 30 5.0 8.0 0.00 0.00 0.00 84 1016.2
20260506145025 53 32 4.0 8.0 0.00 0.00 0.00 85 1016.1
20260506144522 53 39 4.0 8.0 0.00 0.00 0.00 85 1016.0
20260506144019 53 28 5.0 9.0 0.00 0.00 0.00 86 1015.4
20260506143516 53 43 8.0 14.0 0.00 0.00 0.00 85 1014.6
20260506143033 53 43 7.0 14.0 0.00 0.00 0.00 84 1014.2
20260506142530 53 42 7.0 11.0 0.00 0.00 0.00 83 1014.4
20260506142026 53 39 9.0 17.0 0.00 0.00 0.00 82 1014.3
20260506141523 53 36 7.0 14.0 0.00 0.00 0.00 82 1015.4
20260506141020 53 31 7.0 13.0 0.00 0.00 0.00 82 1015.4
20260506140517 53 23 6.0 12.0 0.00 0.00 0.00 82 1015.3
20260506140054 53 34 6.0 10.0 0.00 0.00 0.00 82 1015.1
20260506135531 53 32 5.0 12.0 0.00 0.00 0.00 83 1014.9
20260506135048 53 35 5.0 9.0 0.00 0.00 0.00 83 1014.8
20260506134545 53 39 5.0 11.0 0.00 0.00 0.00 83 1014.4
20260506134022 52 37 6.0 11.0 0.00 0.00 0.00 84 1014.3
20260506133538 52 50 8.0 13.0 0.00 0.00 0.00 84 1014.3
20260506133036 52 49 6.0 11.0 0.00 0.00 0.00 84 1013.8
20260506132532 52 46 9.0 13.0 0.00 0.00 0.00 84 1014.1
20260506132028 52 47 10.0 17.0 0.00 0.00 0.00 84 1014.1
20260506131526 52 48 7.0 14.0 0.00 0.00 0.00 83 1014.1
20260506131022 52 47 9.0 14.0 0.00 0.00 0.00 83 1014.0
20260506130519 52 42 7.0 14.0 0.00 0.00 0.00 83 1013.7
20260506130017 52 47 9.0 15.0 0.00 0.00 0.00 83 1013.8
20260506125534 52 41 8.0 14.0 0.00 0.00 0.00 83 1013.7
20260506125050 52 44 9.0 17.0 0.00 0.00 0.00 83 1013.4
20260506124527 52 44 9.0 16.0 0.00 0.00 0.00 83 1013.6
20260506124024 52 45 10.0 16.0 0.00 0.00 0.00 83 1013.6
20260506123521 52 49 9.0 17.0 0.00 0.00 0.00 82 1013.6
20260506123038 52 47 9.0 15.0 0.00 0.00 0.00 82 1013.6
20260506122535 52 50 9.0 17.0 0.00 0.00 0.00 82 1013.4
20260506122032 53 43 10.0 18.0 0.00 0.00 0.00 82 1013.4
20260506121528 53 32 8.0 16.0 0.00 0.00 0.00 81 1013.3
20260506121025 53 49 10.0 18.0 0.00 0.00 0.00 81 1013.4
20260506120522 53 43 8.0 15.0 0.00 0.00 0.00 80 1013.4
20260506120019 54 36 8.0 18.0 0.00 0.00 0.00 79 1013.2
20260506115516 54 38 10.0 18.0 0.00 0.00 0.00 77 1013.2
20260506115033 54 48 9.0 17.0 0.00 0.00 0.00 77 1013.1
20260506114550 54 53 9.0 17.0 0.00 0.00 0.00 77 1013.1
20260506114026 54 40 9.0 15.0 0.00 0.00 0.00 76 1013.0
20260506113604 54 34 7.0 14.0 0.00 0.00 0.00 75 1012.8
20260506113040 54 45 8.0 15.0 0.00 0.00 0.00 75 1012.8
20260506112537 54 49 9.0 16.0 0.00 0.00 0.00 75 1012.7
20260506112034 55 45 8.0 16.0 0.00 0.00 0.00 74 1012.5
20260506111531 55 35 8.0 16.0 0.00 0.00 0.00 74 1012.3
20260506111048 55 24 5.0 16.0 0.00 0.00 0.00 74 1012.2
20260506110524 55 49 8.0 17.0 0.00 0.00 0.00 74 1012.2
20260506110022 55 28 5.0 9.0 0.00 0.00 0.00 74 1012.0
20260506105519 55 38 7.0 14.0 0.00 0.00 0.00 74 1012.1
20260506105035 55 34 8.0 15.0 0.00 0.00 0.00 74 1012.0
20260506104532 56 42 8.0 16.0 0.00 0.00 0.00 74 1011.9
20260506104049 56 41 9.0 16.0 0.00 0.00 0.00 74 1011.8
20260506103525 56 35 8.0 14.0 0.00 0.00 0.00 74 1012.0
20260506103022 56 33 7.0 15.0 0.00 0.00 0.00 74 1011.8
20260506102519 56 34 7.0 13.0 0.00 0.00 0.00 74 1011.7
20260506102016 56 33 6.0 10.0 0.00 0.00 0.00 74 1011.5
20260506101533 56 41 7.0 14.0 0.00 0.00 0.00 74 1011.4
20260506101029 56 45 8.0 14.0 0.00 0.00 0.00 74 1011.4
20260506100527 56 49 8.0 14.0 0.00 0.00 0.00 73 1011.3
20260506100023 57 26 7.0 15.0 0.00 0.00 0.00 74 1011.1
20260506095520 57 42 5.0 9.0 0.00 0.00 0.00 75 1011.0
20260506095016 57 26 7.0 12.0 0.00 0.00 0.00 75 1011.0
20260506094534 57 48 7.0 12.0 0.00 0.00 0.00 75 1011.1
20260506094030 57 43 8.0 13.0 0.00 0.00 0.00 75 1010.9
20260506093526 57 47 7.0 13.0 0.00 0.00 0.00 74 1011.0
20260506093023 57 47 6.0 10.0 0.00 0.00 0.00 74 1011.0
20260506092541 57 42 7.0 14.0 0.00 0.00 0.00 74 1010.8
20260506092017 57 41 7.0 14.0 0.00 0.00 0.00 74 1010.8
20260506091534 57 42 8.0 13.0 0.00 0.00 0.00 74 1010.8
20260506091031 57 46 8.0 13.0 0.00 0.00 0.00 74 1010.8
20260506090527 57 44 6.0 11.0 0.00 0.00 0.00 75 1010.7
20260506090045 57 42 7.0 12.0 0.00 0.00 0.00 75 1010.8
20260506085521 57 48 7.0 11.0 0.00 0.00 0.00 75 1010.7
20260506085018 58 40 7.0 16.0 0.00 0.00 0.00 76 1010.7
20260506084555 58 39 6.0 12.0 0.00 0.00 0.00 76 1010.6
20260506084052 58 42 5.0 11.0 0.00 0.00 0.00 76 1010.4
20260506083529 58 44 7.0 13.0 0.00 0.00 0.00 76 1010.3
20260506083045 58 39 6.0 11.0 0.00 0.00 0.00 76 1010.3
20260506082522 58 42 7.0 11.0 0.00 0.00 0.00 76 1010.3
20260506082039 58 39 5.0 10.0 0.00 0.00 0.00 76 1010.4
20260506081536 58 44 5.0 11.0 0.00 0.00 0.00 76 1010.5
20260506081052 58 46 7.0 12.0 0.00 0.00 0.00 76 1010.4
20260506080529 58 51 7.0 13.0 0.00 0.00 0.00 75 1010.4
20260506073027 59 56 6.0 11.0 0.00 0.00 0.00 76 1010.0
20260506072524 59 46 6.0 10.0 0.00 0.00 0.00 76 1009.8
20260506072021 59 54 4.0 7.0 0.00 0.00 0.00 76 1009.8
20260506071518 58 50 7.0 11.0 0.00 0.00 0.00 76 1010.0
20260506071035 58 44 7.0 11.0 0.00 0.00 0.00 76 1009.9
20260506070531 58 51 8.0 14.0 0.00 0.00 0.00 76 1010.1
20260506062022 59 43 7.0 12.0 0.00 0.00 0.00 76 1010.1
20260506061519 60 51 8.0 13.0 0.00 0.00 0.00 77 1009.9
20260506061037 60 51 7.0 12.0 0.00 0.00 0.00 77 1010.0